Weather History for Cincinnati, OH

Change the Weather History Date:

Tuesday, January 22, 2013

  Actual Average Record
Temperature  
Mean Temperature 14 °F -  
Max Temperature 19 °F 41 °F 71 °F (1999)
Min Temperature 8 °F 25 °F -4 °F (2014)
Degree Days  
Heating Degree Days 52    
Moisture  
Dew Point -2 °F    
Average Humidity 49    
Maximum Humidity 64    
Minimum Humidity 35    
Precipitation  
Precipitation 0.00 in - - ()
Sea Level Pressure  
Sea Level Pressure 30.38 in    
Wind  
Wind Speed 8 mph (WNW)    
Max Wind Speed 15 mph    
Max Gust Speed 20 mph    
Visibility 10 miles    
Events      
Averages and records for this station are not official NWS values.
T = Trace of Precipitation, MM = Missing Value Source: NWS Daily Summary

Daily Weather History Graph

Daily Weather History Graph

Search for Another Location

Airport:

Trip Planner

Search our weather history database for the weather conditions in past years. The results will help you decide how hot, cold, wet, or windy it might be!

Date:

Astronomy

Jan. 22, 2013 Rise Set
Actual Time 7:51 AM EST 5:47 PM EST
Civil Twilight 7:22 AM EST 6:16 PM EST
Nautical Twilight 6:50 AM EST 6:48 PM EST
Astronomical Twilight 6:18 AM EST 7:20 PM EST
Moon 2:10 PM EST (1/22) 4:12 AM EST (1/22)
Length of Visible Light 10h 53m
Length of Day
9h 55m
Waxing Gibbous, 82% of the Moon is Illuminated
Jan 22
Waxing Gibbous
Jan 26
Full
Feb 3
Last Quarter
Feb 10
New
Feb 17
First Quarter

Hourly Weather History & Observations

Time (EST) Temp. Windchill Dew Point Humidity Pressure Visibility Wind Dir Wind Speed Gust Speed Precip Events Conditions
12:53 AM 12.9 °F 3.8 °F -4.0 °F 47% 30.31 in 10.0 mi NW 5.8 mph - 0.00 in   Clear
1:53 AM 12.0 °F 1.5 °F -2.0 °F 53% 30.32 in 10.0 mi NW 6.9 mph - N/A   Clear
2:53 AM 12.0 °F -0.4 °F -2.0 °F 53% 30.33 in 10.0 mi WNW 9.2 mph - N/A   Clear
3:53 AM 10.9 °F 1.4 °F -2.9 °F 54% 30.34 in 10.0 mi NNW 5.8 mph - N/A   Scattered Clouds
4:53 AM 10.0 °F 0.4 °F -2.0 °F 58% 30.34 in 10.0 mi WNW 5.8 mph - N/A   Partly Cloudy
5:53 AM 9.0 °F -2.2 °F -2.0 °F 61% 30.37 in 10.0 mi WNW 6.9 mph - N/A   Partly Cloudy
6:53 AM 8.1 °F -2.0 °F -2.9 °F 61% 30.38 in 10.0 mi WNW 5.8 mph - N/A   Partly Cloudy
7:53 AM 8.1 °F -3.2 °F -2.0 °F 64% 30.41 in 10.0 mi NW 6.9 mph - N/A   Clear
8:53 AM 9.0 °F -4.2 °F -2.0 °F 61% 30.43 in 10.0 mi NW 9.2 mph - N/A   Partly Cloudy
9:53 AM 10.9 °F -2.6 °F -0.9 °F 59% 30.44 in 10.0 mi West 10.4 mph - N/A   Scattered Clouds
10:53 AM 12.9 °F 3.8 °F -0.9 °F 54% 30.46 in 10.0 mi WSW 5.8 mph - N/A   Mostly Cloudy
11:53 AM 14.0 °F 6.5 °F -0.9 °F 52% 30.44 in 10.0 mi NNW 4.6 mph - N/A   Mostly Cloudy
12:53 PM 17.1 °F 6.6 °F -0.9 °F 45% 30.41 in 10.0 mi West 8.1 mph - N/A   Scattered Clouds
1:53 PM 18.0 °F 8.7 °F -2.9 °F 40% 30.38 in 10.0 mi Variable 6.9 mph - N/A   Clear
2:53 PM 19.0 °F 11.1 °F -2.9 °F 38% 30.38 in 10.0 mi WSW 5.8 mph 19.6 mph N/A   Clear
3:53 PM 19.9 °F 10.1 °F -4.0 °F 35% 30.38 in 10.0 mi West 8.1 mph 17.3 mph N/A   Clear
4:53 PM 19.0 °F 7.5 °F -2.9 °F 38% 30.38 in 10.0 mi WSW 10.4 mph - N/A   Clear
5:53 PM 17.1 °F 2.5 °F -4.0 °F 39% 30.38 in 10.0 mi WSW 15.0 mph - N/A   Clear
6:53 PM 17.1 °F 6.6 °F -2.0 °F 43% 30.39 in 10.0 mi WSW 8.1 mph - N/A   Clear
7:53 PM 17.1 °F 4.3 °F -0.9 °F 45% 30.39 in 10.0 mi WSW 11.5 mph - N/A   Clear
8:53 PM 18.0 °F 6.1 °F -2.0 °F 41% 30.38 in 10.0 mi West 10.4 mph - N/A   Clear
9:53 PM 18.0 °F 5.4 °F -2.0 °F 41% 30.39 in 10.0 mi WNW 11.5 mph - N/A   Mostly Cloudy
10:53 PM 17.1 °F 4.3 °F -0.9 °F 45% 30.39 in 10.0 mi WNW 11.5 mph - N/A   Overcast
11:53 PM 17.1 °F 7.6 °F -2.0 °F 43% 30.40 in 10.0 mi West 6.9 mph - N/A   Overcast